Regional Weather Roundup
Issued by NWS

Home | Current Version | Previous Version | Text Only | Print | Product List | Glossary Off
Versions: 1 2 3 4 5 6 7 8 9 10 11 12 13 14 15 16 17 18 19 20 21 22 23 24 25 26 27 28 29 30 31 32 33 34 35 36 37 38 39 40 41 42 43 44 45 46 47 48 49 50

000
ASUS43 KDMX 261608
RWRIA

WEATHER ROUNDUP FOR IOWA
NATIONAL WEATHER SERVICE DES MOINES IA
1100 AM CDT TUE JUL 26 2016

NOTE: "FAIR" INDICATES FEW OR NO CLOUDS BELOW 12,000 FEET WITH NO
SIGNIFICANT WEATHER AND/OR OBSTRUCTIONS TO VISIBILITY.

* - THESE STATIONS ARE NOT NWS STATIONS...THUS NOT UNDER NWS
QUALITY CONTROL.  THEY ALSO DO NOT REPORT WEATHER SUCH
AS PRECIPITATION OR FOG.

IAZ001>003-012>014-020>022-031>034-043>046-261700-
   NORTHWEST IOWA

CITY           SKY/WX    TMP DP  RH WIND       PRES   REMARKS
CARROLL *      SUNNY     81  68  65 S6        30.10R HX  83
CHEROKEE *     SUNNY     82  66  60 SW7       30.09S HX  84
DENISON *      SUNNY     81  66  61 VRB5      30.08R HX  83
LE MARS *      SUNNY     81  66  61 S9        30.09S HX  83
SHELDON *      SUNNY     79  68  69 SW8       30.08S HX  81
SIOUX CITY     SUNNY     83  68  60 SW10      30.08R HX  86
SPENCER        SUNNY     82  66  58 SW8       30.09R HX  84
STORM LAKE *   SUNNY     81  66  61 S8        30.11R HX  83
$$

IAZ055>058-069>071-079>083-090>094-261700-
   SOUTHWEST IOWA

CITY           SKY/WX    TMP DP  RH WIND       PRES   REMARKS
ATLANTIC *     SUNNY     81  66  61 S7        30.10R HX  83
CLARINDA *       N/A     81  64  57 MISG      30.10F HX  82
COUNCIL BLFS * SUNNY     81  66  61 S10       30.09F HX  83
CRESTON *      SUNNY     81  64  57 SE7       30.11S HX  82
HARLAN  *      SUNNY     79  68  69 SE7       30.13R HX  81
LAMONI         SUNNY     79  66  64 E7        30.09F HX  81
RED OAK *      SUNNY     81  66  61 SE7       30.09S HX  83
SHENANDOAH *   SUNNY     82  68  61 SE7       30.09S HX  85
$$

IAZ047>049-059>061-072>074-084-261700-
   CENTRAL IOWA

CITY           SKY/WX    TMP DP  RH WIND       PRES   REMARKS
AMES           SUNNY     81  68  64 SE6       30.09S HX  84
ANKENY *         N/A    N/A N/A N/A MISG        N/A
BOONE *        SUNNY     81  66  61 SE7       30.09S HX  83
CHARITON *       N/A    N/A N/A N/A MISG        N/A
DES MOINES     MOSUNNY   83  62  49 E8        30.08S HX  84
GRINNELL*      SUNNY     80  64  58 E5        30.10S HX  82
KNOXVILLE *    SUNNY     81  63  54 E5        30.08S HX  82
MARSHALLTOWN   SUNNY     80  67  64 E8        30.09S HX  82
NEWTON *       SUNNY     81  64  57 NE9       30.09S HX  82
PELLA *        SUNNY     82  64  54 CALM      30.09F HX  83
PERRY *          N/A     81  70  69 SE5       30.09F HX  84
$$

IAZ004>006-015-016-023>025-035-036-261700-
   NORTH CENTRAL IOWA

CITY           SKY/WX    TMP DP  RH WIND       PRES   REMARKS
ALGONA *       SUNNY     81  68  65 SW6       30.11R HX  83
ESTHERVILLE    SUNNY     80  65  59 SW9       30.09R HX  82
FORT DODGE *   SUNNY     81  68  65 S6        30.11R HX  83
MASON CITY     SUNNY     81  66  60 SW6       30.11F HX  83
FOREST CITY *    N/A     79  64  61 S5        30.11S HX  81
IOWA FALLS *     N/A     82  64  55 E3        30.11S HX  83
$$

IAZ007>011-017>019-026>030-037>042-050>054-066-261700-
   NORTHEAST IOWA

CITY           SKY/WX    TMP DP  RH WIND       PRES   REMARKS
CEDAR RAPIDS   SUNNY     80  68  66 E6        30.09S HX  83
CHARLES CITY * SUNNY     81  64  57 CALM      30.11S HX  82
CLINTON *      SUNNY     83  68  60 VRB6      30.09R HX  86
DECORAH *      SUNNY     79  68  69 CALM      30.10S HX  81
DUBUQUE        SUNNY     81  66  60 CALM      30.11S HX  83
MONTICELLO *   SUNNY     81  66  61 CALM      30.09S HX  83
OELWEIN *      SUNNY     81  66  61 CALM      30.10F HX  83
WATERLOO       SUNNY     81  67  62 NE5       30.08F HX  83
$$

IAZ064-065-067-068-078-261700-
   EAST CENTRAL IOWA

CITY           SKY/WX    TMP DP  RH WIND       PRES   REMARKS
DAVENPORT      SUNNY     82  66  58 E6        30.09R HX  84
IOWA CITY      SUNNY     81  67  62 S6        30.10R HX  83
MT. PLEASANT * SUNNY     83  69  62 CALM      30.08S HX  86
MUSCATINE *    SUNNY     82  64  54 E6        30.08S HX  84
QUAD CITIES    SUNNY     83  66  56 E3        30.07S HX  85
$$

IAZ062-063-075>077-085>089-095>099-261700-
   SOUTHEAST IOWA

CITY           SKY/WX    TMP DP  RH WIND       PRES   REMARKS
BURLINGTON     SUNNY     81  65  58 SE6       30.07S HX  83
FAIRFIELD *    SUNNY     81  64  57 E6        30.08S HAZE    HX  82
KEOKUK *       SUNNY     81  68  65 CALM      30.07S HX  83
CENTERVILLE *    N/A     81  66  61 CALM      30.10S HX  83
OTTUMWA        SUNNY     80  65  59 E6        30.07F HX  82
WASHINGTON *   SUNNY     81  68  65 VRB3      30.10R HX  83
$$

ABBREVIATIONS USED IN REMARKS
   TC - TEMPERATURES IN CELSIUS
  WCI - WIND CHILL INDEX
   HX - HEAT INDEX
  VSB - VISIBILITY
$$




USA.gov is the U.S. government's official web portal to all federal, state and local government web resources and services.